Location: Passau
(48.5830°N, 13.4830°E)
Time: 04:46:34
(UTC+01:00)

NOAA 19 - Visible Passes

Search period start: 29 November 2021 00:00
Search period end: 09 December 2021 00:00
Orbit: 840 x 861 km, 99.2° (Epoch: 28 November)

Date Brightness Start Highest point End Pass type
(mag) Time Alt. Az. Time Alt. Az. Time Alt. Az.
29 Nov 6.2 17:15:07 10° ESE 17:19:16 23° ENE 17:23:26 10° N visible
29 Nov 5.4 18:54:02 10° S 18:59:27 68° WSW 19:04:55 10° NNW visible
29 Nov 8.2 20:40:30 10° W 20:41:08 10° W 20:41:46 10° WNW visible
30 Nov 6.4 17:03:54 10° E 17:07:37 19° NE 17:11:20 10° NNE visible
30 Nov 5.2 18:42:09 10° SSE 18:47:37 83° WSW 18:53:08 10° NNW visible
30 Nov 8.0 20:26:34 10° WSW 20:29:07 13° W 20:31:41 10° WNW visible
01 Dec 7.4 07:00:25 10° NE 07:05:16 31° E 07:10:06 10° SSE visible
01 Dec 6.6 16:52:49 10° E 16:55:59 16° NE 16:59:09 10° NNE visible
01 Dec 5.0 18:30:22 10° SSE 18:35:48 80° ENE 18:41:19 10° NNW visible
01 Dec 7.7 20:13:41 10° SW 20:17:08 17° W 20:20:35 10° NW visible
02 Dec 7.7 06:48:51 10° NE 06:53:20 25° E 06:57:48 10° SSE visible
02 Dec 6.8 16:41:56 10° ENE 16:44:22 13° NE 16:46:48 10° NNE visible
02 Dec 5.1 18:18:38 10° SSE 18:24:01 65° ENE 18:29:28 10° N visible
02 Dec 7.4 20:01:06 10° SW 20:05:09 21° W 20:09:15 10° NW visible
03 Dec 7.9 06:37:23 10° NE 06:41:23 20° E 06:45:23 10° SE visible
03 Dec 5.2 18:06:59 10° SE 18:12:15 53° ENE 18:17:35 10° N visible
03 Dec 7.1 19:48:42 10° SSW 19:53:12 26° W 19:57:45 10° NW visible
04 Dec 8.1 06:26:04 10° NE 06:29:25 16° E 06:32:45 10° SE visible
04 Dec 5.5 17:55:23 10° SE 18:00:30 43° ENE 18:05:40 10° N visible
04 Dec 6.8 19:36:27 10° SSW 19:41:17 32° W 19:46:10 10° NNW visible
05 Dec 8.3 06:15:04 10° ENE 06:17:25 13° E 06:19:46 10° ESE visible
05 Dec 5.7 17:43:53 10° SE 17:48:47 36° ENE 17:53:43 10° N visible
05 Dec 6.4 19:24:17 10° SSW 19:29:23 40° W 19:34:32 10° NNW visible
06 Dec 5.9 17:32:26 10° ESE 17:37:04 30° ENE 17:41:45 10° N visible
06 Dec 6.0 19:12:13 10° S 19:17:30 50° W 19:22:50 10° NNW visible
07 Dec 6.2 17:21:04 10° ESE 17:25:23 25° ENE 17:29:44 10° N visible
07 Dec 5.6 19:00:15 10° S 19:05:38 62° WSW 19:11:06 10° NNW visible
08 Dec 6.4 17:09:49 10° ESE 17:13:43 21° NE 17:17:40 10° N visible
08 Dec 5.3 18:48:21 10° S 18:53:48 77° WSW 18:59:19 10° NNW visible
08 Dec 8.1 20:33:21 10° WSW 20:35:23 12° W 20:37:26 10° WNW visible
